Weather observations for the past three days for
The Dalles Municipal Airport
Imperial (Metric)
Date Time (pdt) Wind (mph) Vis. (mi.) Weather Sky Cond. Temperature (ºF) Relative Humidity Wind Chill (°F) Heat Index (°F) Pressure Precipitation (in)
Air Dwpt 6 hour altimeter (in) sea level (mb) 1 hr 3 hr 6 hr
Max. Min.
15 02:53 NW 9 10.00 Fair CLR 69.1 55 61% 29.98 1014.9
15 01:53 NW 12 10.00 Fair CLR 72 55 55% 29.97 1014.7
15 00:53 NW 12 G 20 10.00 Fair CLR 73.9 55 52% 29.97 1014.5
14 23:53 NW 10 10.00 Fair CLR 75 52 45% 78 29.96 1014.2
14 22:53 NW 3 10.00 Fair CLR 79 39 97 78.1 24% 78 29.95 1013.9
14 21:53 W 8 10.00 Fair CLR 81 39.9 23% 79 29.93 1013.4
14 20:53 W 10 10.00 Fair CLR 84.9 39 20% 82 29.91 1012.4
14 19:53 W 21 10.00 Fair and Breezy CLR 90 37.9 16% 86 29.89 1011.8
14 18:53 W 21 G 32 10.00 Fair and Breezy CLR 93 41 16% 89 29.88 1011.5
14 17:53 W 24 G 33 10.00 Fair and Breezy CLR 93.9 45 18% 90 29.88 1011.4
14 16:53 W 22 G 32 10.00 Fair and Breezy CLR 97 48 98.1 87.1 19% 93 29.88 1011.4
14 15:53 W 25 G 35 10.00 Fair and Breezy CLR 97 48 19% 93 29.88 1011.6
14 14:53 NW 23 G 37 10.00 Fair and Breezy CLR 97 46 17% 93 29.89 1011.9
14 13:53 W 23 G 37 10.00 Fair and Breezy CLR 97 52 22% 94 29.89 1011.9
14 12:53 W 22 G 35 10.00 Fair and Breezy CLR 96.1 55.9 26% 94 29.9 1012.1
14 11:53 NW 16 G 26 10.00 Fair CLR 90 57 33% 89 29.91 1012.6
14 10:53 NW 17 10.00 Fair CLR 87.1 57 87.1 68 36% 86 29.92 1012.9
14 09:53 NW 13 G 17 10.00 Fair CLR 84 57.9 41% 83 29.92 1013.1
14 08:53 NW 13 G 17 10.00 Fair CLR 80.1 57.9 47% 81 29.94 1013.7
14 07:53 W 12 G 22 10.00 Fair CLR 75.9 57.9 54% 78 29.94 1013.5
14 06:53 NW 8 10.00 Fair CLR 72 55.9 57% 29.93 1013.4
14 05:53 NW 6 10.00 Fair CLR 70 55 59% 29.92 1013.0
14 04:53 Calm 10.00 Fair CLR 68 48.9 82.9 68 51% 29.9 1012.4
14 03:53 NW 5 10.00 Fair CLR 73.9 57.9 57% 29.88 1011.7
14 02:53 NW 13 G 22 10.00 Fair CLR 75.9 59 56% 78 29.87 1011.4
14 00:53 NW 9 G 20 10.00 Fair CLR 79 60.1 52% 80 29.87 1011.3
13 23:53 NW 13 10.00 Fair CLR 81 59 47% 81 29.87 1011.2
13 22:53 NW 10 10.00 Fair CLR 82.9 59 100.9 82.9 44% 83 29.86 1011.0
13 21:53 NW 15 10.00 Fair CLR 84 61 46% 84 29.86 1010.8
13 20:53 NW 10 10.00 Fair CLR 86 62.1 45% 87 29.83 1009.9
13 19:53 NW 17 G 24 10.00 Fair CLR 89.1 61 39% 89 29.82 1009.5
13 18:53 N 10 10.00 Fair CLR 95 59 30% 94 29.81 1009.2
13 17:53 NW 8 10.00 Fair CLR 98.1 55.9 24% 97 29.81 1009.0
13 16:53 NW 18 10.00 Fair CLR 100.9 50 102 84 18% 98 29.81 1009.0
13 15:53 NW 16 10.00 Fair CLR 98.1 55.9 24% 97 29.82 1009.7
13 14:53 NW 17 10.00 Fair CLR 98.1 57 25% 97 29.83 1010.0
13 13:53 NW 13 10.00 Fair CLR 97 57 26% 96 29.85 1010.6
13 12:53 NW 13 10.00 Fair CLR 93 57.9 31% 92 29.87 1011.3
13 11:53 NW 15 10.00 Fair CLR 89.1 59 36% 88 29.89 1011.8
13 10:53 NW 14 10.00 Fair CLR 84 60.1 84 63 44% 84 29.91 1012.5
13 09:53 NW 14 10.00 Fair CLR 79 60.1 52% 80 29.92 1013.1
13 08:53 NW 10 10.00 Fair CLR 75 60.1 60% 77 29.94 1013.5
13 07:53 NW 8 10.00 Fair CLR 72 60.1 66% 29.94 1013.7
13 06:53 NW 5 10.00 Fair CLR 70 57.9 66% 29.94 1013.6
13 05:53 SE 6 10.00 Fair CLR 63 54 73% 29.92 1013.0
13 04:53 Calm 10.00 Fair CLR 66.9 57.9 79 66.9 73% 29.91 1012.7
13 03:53 W 8 10.00 Fair CLR 70 59 68% 29.9 1012.4
13 02:53 W 5 10.00 Fair CLR 72 57.9 61% 29.9 1012.2
13 01:53 NW 10 G 17 10.00 Fair CLR 73.9 59 60% 29.9 1012.2
13 00:53 NW 15 G 22 10.00 Fair CLR 75.9 59 56% 78 29.89 1012.0
12 23:53 NW 15 G 26 10.00 Fair CLR 78.1 59 52% 79 29.88 1011.6
12 22:53 NW 15 10.00 Fair CLR 79 59 91 79 50% 80 29.87 1011.4
12 21:53 NW 16 G 24 10.00 Fair CLR 81 59 47% 81 29.86 1010.9
12 20:53 NW 16 G 25 10.00 Fair CLR 82.9 59 44% 83 29.85 1010.6
12 19:53 NW 17 G 24 10.00 Fair CLR 84.9 59 42% 85 29.85 1010.5
12 18:53 NW 17 G 25 10.00 Fair CLR 88 57.9 36% 87 29.85 1010.4
12 17:53 NW 18 G 29 10.00 Fair CLR 90 55.9 32% 88 29.85 1010.5
12 16:53 NW 18 G 28 10.00 Fair CLR 91 55 93.9 80.1 30% 89 29.85 1010.7
12 15:53 NW 20 G 26 10.00 Fair CLR 93 48.9 22% 90 29.87 1011.2
12 14:53 NW 13 10.00 Fair CLR 91.9 51.1 25% 89 29.89 1011.8
12 13:53 NW 14 10.00 Fair CLR 90 52 27% 87 29.91 1012.5
12 12:53 NW 15 G 20 10.00 Fair CLR 87.1 51.1 29% 85 29.93 1013.3
12 11:53 NW 14 10.00 Fair CLR 84 52 33% 82 29.96 1014.2
12 10:53 NW 15 10.00 Fair CLR 80.1 54 80.1 64.9 41% 80 29.98 1014.9
12 09:53 NW 15 G 23 10.00 Fair CLR 75 54 48% 78 30 1015.5
12 08:53 NW 10 10.00 Fair CLR 72 55 55% 30.01 1016.0
12 07:53 NW 9 10.00 Fair CLR 69.1 55 61% 30.02 1016.2
12 06:53 W 7 10.00 Fair CLR 66.9 55 66% 30 1015.8
12 05:53 W 5 10.00 Fair CLR 66 54 65% 29.99 1015.2
12 04:53 Vrbl 5 10.00 Fair CLR 66 54 78.1 66 65% 29.96 1014.5
12 03:53 NW 13 G 23 10.00 Fair CLR 68 55 63% 29.95 1014.1
Date Time (pdt) Wind (mph) Vis. (mi.) Weather Sky Cond. Air Dwpt Max. Min. Relative Humidity Wind Chill (°F) Heat Index (°F) altimeter (in) sea level (mb) 1 hr 3 hr 6 hr
6 hour
Temperature (ºF) Pressure Precipitation (in)